Location: *
(40.7765°S, 106.5327°E)
Time: 07:05:20
(UTC+00:00)

Meteor 2-6 Rocket - Visible Passes

Search period start: 06 October 2022 00:00
Search period end: 16 October 2022 00:00
Orbit: 806 x 914 km, 81.3° (Epoch: 05 October)

Date Brightness Start Highest point End Pass type
(mag) Time Alt. Az. Time Alt. Az. Time Alt. Az.
06 Oct 6.3 18:05:32 10° S 18:07:19 21° S 18:07:19 21° S visible
07 Oct 6.4 17:56:21 10° S 17:58:05 20° S 17:58:05 20° S visible
08 Oct 6.4 17:47:10 10° S 17:48:53 20° S 17:48:53 20° S visible
09 Oct 6.4 17:37:58 10° S 17:39:41 20° S 17:39:41 20° S visible
10 Oct 6.4 17:28:48 10° S 17:30:30 20° S 17:30:30 20° S visible
11 Oct 6.4 17:19:36 10° S 17:21:20 20° S 17:21:20 20° S visible
12 Oct 6.4 17:10:25 10° S 17:12:11 20° S 17:12:11 20° S visible
13 Oct 6.4 17:01:14 10° S 17:03:02 21° S 17:03:02 21° S visible
14 Oct 6.4 16:52:03 10° S 16:53:54 21° S 16:53:54 21° S visible
15 Oct 6.3 16:42:52 10° S 16:44:46 21° S 16:44:46 21° S visible
